Wind_Speed
8 13 14 11 14 15 19 19 19 18 12 22 22 24 22 27 18 15 12 19 27 34 30 24 31 36 31 33 54 50 41 42 62 61 49 60 51 48 48 41 43 42 37 37
12 17 10 14 11 15 17 20 23 21 13 22 19 15 29 26 27 25 11 17 18 23 19 23 31 31 27 44 64 53 44 35 50 49 54 54 54 50 43 41 45 42 42 40
14 15 14 14 15 19 21 19 17 16 19 16 15 1 30 37 24 17 5 19 14 16 20 26 33 29 25 30 40 34 39 37 35 39 53 52 50 42 43 46 50 46 43 41
8 5 10 11 10 13 17 11 11 13 14 7 13 4 36 38 40 27 13 15 8 15 18 23 28 25 22 34 37 28 28 30 25 42 36 34 36 45 52 53 52 52 44 43
7 7 10 12 20 13 13 11 10 12 9 8 9 2 27 38 42 42 30 28 7 15 14 22 26 24 19 19 21 23 32 24 36 28 29 26 30 40 40 49 49 46 45 43
3 6 6 13 15 6 11 10 5 6 5 2 14 4 19 37 36 40 36 32 16 19 20 17 15 20 17 14 19 41 16 23 20 28 33 32 31 35 44 44 39 39 38 39
2 3 13 15 15 3 12 4 2 2 1 2 14 9 18 28 30 33 30 29 19 17 12 14 19 11 15 16 18 17 20 22 18 24 36 36 33 38 33 43 49 44 43 39
9 5 20 16 13 14 11 9 3 3 2 1 9 7 14 22 24 28 33 32 21 22 24 20 17 17 15 16 12 11 17 20 26 27 30 33 27 35 30 32 35 47 42 38
8 4 12 9 13 11 6 8 8 4 6 6 5 6 9 19 24 26 32 36 28 17 22 23 18 13 7 13 8 9 5 16 2 21 29 37 38 41 31 35 32 47 49 39
7 3 10 6 10 12 10 10 2 2 3 3 2 4 10 22 26 25 28 31 29 24 16 17 17 17 16 8 8 5 7 7 11 10 23 23 31 47 34 36 33 41 41 37
3 4 5 6 14 21 16 8 6 6 4 3 3 3 10 14 19 23 25 25 25 21 25 13 16 15 14 10 8 4 6 5 5 4 10 29 28 30 31 41 40 43 42 43
5 3 5 8 12 12 15 16 10 2 2 4 3 2 5 7 12 15 19 21 23 21 15 21 11 13 10 9 9 7 6 7 5 7 5 12 12 19 24 29 36 32 39 42
12 6 1 1 4 8 10 13 8 6 4 3 2 2 3 1 6 10 14 18 18 18 18 17 16 10 7 7 8 8 10 10 7 5 8 2 14 17 22 19 21 22 28 35
7 11 10 4 3 2 4 7 9 4 2 3 2 7 4 5 6 7 10 13 15 15 16 16 13 12 10 9 5 5 5 5 5 5 5 5 5 9 27 27 31 36 30 32
6 8 8 7 5 3 3 3 4 4 2 1 1 3 5 6 9 5 5 8 9 8 9 11 12 12 12 10 7 7 6 5 3 4 4 4 4 1 5 18 23 16 16 23
4 2 5 5 5 4 4 3 2 1 2 2 3 4 6 6 8 8 5 1 1 2 4 6 8 9 9 8 7 7 6 7 7 5 3 2 4 7 5 7 9 13 16 19
6 5 4 3 7 8 6 3 4 5 6 5 5 4 5 5 6 7 2 4 4 3 2 0 2 3 4 6 6 6 5 5 5 5 5 5 7 8 11 7 8 11 16 18
5 7 5 6 9 4 5 6 6 8 8 7 6 6 5 5 4 5 5 4 3 4 7 7 5 4 3 3 3 4 4 4 3 3 3 3 4 7 11 10 9 8 11 27
6 7 5 4 6 10 4 5 7 9 7 6 3 5 6 8 6 7 6 6 4 5 5 8 10 10 10 8 8 8 8 7 7 6 6 6 6 8 10 11 13 15 14 15
7 9 6 4 3 3 3 4 6 8 5 7 6 6 5 6 7 10 10 10 8 7 8 9 9 10 13 15 15 15 15 15 15 16 16 15 15 14 14 14 15 16 18 19
11 7 7 7 6 6 6 6 6 4 6 10 8 9 10 10 10 10 12 13 14 13 12 12 11 10 12 13 16 16 17 18 19 21 24 24 25 24 25 24 24 23 23 24
6 5 4 3 5 4 3 8 7 12 15 13 11 11 12 13 14 14 12 14 15 16 18 17 15 14 12 13 14 16 17 18 18 19 21 22 26 29 32 34 35 35 36 36
6 4 8 7 11 22 22 18 18 17 15 16 14 13 13 13 13 15 15 15 15 15 17 20 20 19 17 15 14 14 16 17 19 20 20 20 21 22 24 27 31 34 34 35
13 11 20 24 9 21 19 18 19 19 16 16 16 15 14 13 13 14 14 14 14 12 16 18 22 23 24 22 21 20 20 20 20 21 21 22 22 24 25 26 27 28 29 33
26 27 27 28 13 19 17 19 19 18 19 17 16 16 15 14 14 13 14 14 14 12 13 15 18 22 25 23 25 26 25 24 25 26 26 25 25 27 27 29 30 30 31 32
37 30 27 23 17 26 26 23 21 20 19 19 17 15 16 15 14 15 14 13 12 11 10 11 13 18 22 23 26 29 30 30 30 31 31 31 31 30 30 31 33 35 34 33
Wind_Direction
265 271 273 297 288 290 294 285 295 305 328 313 314 323 323 328 340 318 296 272 267 264 262 225 211 199 195 210 225 210 215 209 209 214 223 216 215 209 213 210 216 211 206 208
268 276 315 322 302 289 303 306 300 304 305 314 321 331 344 12 10 359 314 297 271 257 187 197 184 186 193 214 214 219 223 220 200 208 214 227 212 207 206 209 216 208 211 207
277 290 294 296 295 292 286 281 285 288 306 323 331 115 350 8 11 341 274 327 293 204 172 184 175 180 189 209 214 226 229 224 205 205 217 214 196 203 212 210 215 212 211 210
298 314 302 304 319 325 296 288 252 277 313 323 335 285 16 7 8 18 346 340 122 152 163 178 178 175 168 213 221 218 231 224 213 194 196 203 206 215 220 216 221 217 209 211
335 331 336 334 335 306 292 319 263 258 297 337 4 58 2 12 9 1 15 37 156 170 112 164 155 152 158 166 189 222 242 242 225 214 202 213 215 220 224 209 207 209 208 209
8 12 341 332 353 332 314 308 253 238 220 34 13 47 7 7 3 1 11 40 114 145 118 115 129 139 150 170 191 216 227 226 211 216 223 221 220 220 221 232 222 215 216 213
348 322 3 348 8 339 2 71 78 49 68 100 45 40 26 9 16 6 17 24 66 112 97 136 130 125 137 151 172 200 216 216 216 224 225 223 222 216 222 228 231 224 216 217
6 359 2 353 0 333 11 39 67 138 97 88 39 29 26 15 23 20 27 27 86 112 133 129 132 111 106 131 164 226 229 220 223 227 231 224 219 212 226 225 226 229 217 211
359 11 13 19 13 27 25 38 90 115 95 79 32 33 32 24 35 33 31 29 49 104 116 136 121 115 129 149 123 65 188 205 155 228 221 222 215 218 221 218 235 237 237 220
352 340 3 66 61 50 44 49 103 45 75 82 31 46 20 16 23 28 37 41 35 43 77 102 94 88 82 119 149 99 82 21 204 190 210 231 226 219 216 234 233 224 220 209
25 34 28 71 43 30 36 47 57 69 46 147 145 51 42 24 21 23 33 40 49 41 43 77 107 94 82 82 56 23 121 71 68 155 186 213 193 212 236 224 224 219 212 205
39 71 59 61 56 44 39 43 44 15 110 95 92 99 92 26 24 24 38 43 43 52 59 53 91 92 86 85 77 70 48 133 51 67 77 212 214 227 227 214 218 210 209 211
29 17 307 137 55 60 40 47 51 74 59 57 92 217 109 354 348 32 44 46 48 51 59 61 67 79 93 98 79 74 68 61 55 77 35 113 198 213 211 194 214 229 233 227
39 43 58 117 105 28 44 40 40 49 33 106 105 175 239 280 352 58 52 49 45 43 55 68 69 68 70 75 96 43 38 37 39 62 65 89 274 260 220 234 222 230 249 239
44 44 56 57 48 7 342 24 40 49 70 29 146 211 260 296 315 346 47 53 45 41 51 59 66 76 73 73 69 48 38 39 350 339 358 38 275 313 220 230 249 226 239 224
40 10 9 5 3 346 325 316 328 342 354 327 309 276 270 309 326 312 302 284 106 31 47 53 58 57 63 72 67 64 50 34 25 354 325 319 325 328 308 315 294 260 261 251
13 351 321 305 318 309 301 303 310 314 309 299 295 304 297 325 352 356 327 275 253 224 230 330 58 34 36 47 48 57 50 36 27 21 4 322 282 274 287 319 308 244 241 239
346 354 335 307 334 7 331 314 309 314 312 305 309 298 299 294 323 332 324 323 309 268 243 236 249 260 267 298 330 348 1 11 3 359 345 321 286 276 261 271 274 280 263 243
332 338 331 330 303 295 310 323 320 325 345 330 338 296 296 306 315 312 311 306 308 303 287 258 253 256 264 269 275 280 281 283 285 284 279 272 270 273 271 267 267 271 263 262
312 315 309 315 300 222 308 326 323 328 359 354 341 328 319 313 309 293 296 288 280 290 302 289 277 271 268 268 270 271 268 267 270 272 272 272 270 267 268 270 270 266 267 267
310 302 286 277 271 278 286 314 322 335 329 339 333 325 320 320 316 312 311 299 285 278 274 278 282 278 277 283 283 280 276 274 271 269 267 267 268 268 268 268 267 265 264 264
297 304 299 280 257 306 318 321 305 309 314 316 318 318 317 314 316 316 317 305 289 277 267 261 265 271 281 285 286 288 288 287 286 284 282 278 273 271 271 270 270 270 268 267
282 276 291 282 288 295 298 298 296 294 297 298 304 308 310 308 307 310 313 313 295 279 267 262 258 261 262 267 275 283 290 294 294 294 295 294 293 289 283 276 273 272 273 271
287 284 289 303 311 307 300 301 298 285 284 285 291 294 300 305 303 305 311 313 302 290 273 257 252 253 257 262 270 274 277 283 285 288 291 294 294 292 290 286 281 277 274 270
277 284 292 297 312 304 304 305 298 294 278 280 280 286 291 296 301 305 311 312 311 300 284 266 254 254 257 260 266 270 275 279 281 284 286 289 291 288 285 283 282 281 280 276
276 282 280 290 300 296 296 293 291 286 282 273 273 276 284 290 296 300 307 312 313 305 293 280 268 263 260 258 263 270 274 277 279 281 283 285 288 288 288 285 284 283 279 278
Height
3055 3054 3052 3050 3049 3047 3044 3041 3040 3038 3038 3033 3030 3026 3021 3014 3003 2995 2989 2987 2986 2985 2984 2984 2988 2996 3004 3015 3029 3037 3043 3052 3038 3048 3058 3068 3076 3086 3093 3099 3106 3110 3116 3122
3054 3051 3050 3047 3046 3044 3041 3039 3037 3036 3035 3032 3028 3025 3021 3009 3001 2993 2987 2984 2978 2978 2978 2981 2987 2993 3002 3013 3021 3031 3037 3045 3038 3045 3057 3063 3068 3081 3088 3095 3101 3104 3109 3116
3051 3049 3048 3046 3044 3041 3039 3038 3036 3035 3032 3030 3026 3024 3015 3006 2998 2990 2985 2979 2973 2973 2974 2977 2982 2992 3000 3011 3021 3030 3034 3037 3037 3041 3047 3052 3062 3073 3081 3086 3094 3100 3104 3111
3049 3047 3045 3043 3040 3037 3033 3033 3033 3032 3032 3029 3028 3025 3016 3007 2998 2989 2984 2978 2973 2973 2972 2975 2982 2992 3000 3011 3016 3023 3028 3033 3030 3037 3043 3046 3058 3064 3073 3080 3090 3096 3098 3105
3050 3045 3042 3040 3035 3032 3030 3029 3029 3030 3031 3030 3027 3024 3023 3010 3001 2996 2988 2979 2972 2974 2978 2974 2984 2994 3000 3004 3014 3024 3028 3032 3033 3037 3042 3048 3053 3061 3059 3071 3078 3084 3093 3100
3047 3044 3041 3038 3033 3029 3028 3026 3027 3028 3030 3030 3027 3025 3023 3014 3008 3001 2987 2980 2978 2978 2985 2988 2989 2995 3002 3007 3010 3019 3027 3031 3032 3034 3041 3047 3051 3056 3062 3068 3078 3081 3086 3089
3045 3043 3041 3037 3032 3030 3028 3025 3027 3031 3028 3032 3028 3028 3031 3023 3015 3008 2998 2990 2982 2985 2991 2991 2991 2996 3003 3008 3011 3020 3021 3024 3027 3030 3036 3041 3046 3053 3059 3065 3071 3075 3081 3084
3045 3042 3039 3036 3034 3031 3028 3027 3028 3032 3028 3032 3031 3035 3036 3028 3022 3014 3005 2997 2988 2987 2990 2994 2997 3001 3005 3011 3017 3019 3019 3023 3022 3025 3033 3039 3043 3049 3054 3060 3065 3070 3074 3080
3045 3044 3041 3038 3034 3031 3029 3029 3030 3030 3030 3032 3038 3037 3035 3031 3024 3018 3012 3005 2996 2994 2995 2998 2999 3005 3008 3013 3016 3017 3017 3020 3020 3023 3029 3033 3041 3047 3052 3058 3062 3065 3070 3076
3046 3044 3043 3040 3037 3033 3030 3032 3031 3030 3037 3040 3039 3038 3039 3032 3026 3024 3018 3014 3008 3003 3002 3003 3005 3008 3011 3013 3016 3018 3020 3021 3021 3021 3026 3030 3033 3041 3047 3053 3055 3059 3065 3071
3046 3047 3046 3041 3038 3035 3033 3031 3031 3031 3033 3037 3043 3041 3038 3036 3032 3029 3025 3022 3018 3014 3009 3009 3010 3012 3015 3019 3021 3022 3022 3021 3021 3021 3021 3027 3031 3039 3044 3047 3051 3054 3059 3064
3046 3046 3045 3044 3040 3039 3038 3035 3033 3033 3037 3035 3036 3042 3039 3038 3036 3034 3032 3028 3024 3022 3020 3016 3014 3016 3020 3023 3024 3024 3023 3024 3022 3025 3025 3027 3032 3038 3041 3046 3049 3051 3056 3059
3048 3046 3045 3045 3046 3043 3041 3038 3037 3037 3037 3036 3038 3038 3037 3038 3037 3034 3032 3031 3029 3028 3024 3021 3022 3024 3024 3024 3025 3026 3027 3026 3026 3028 3028 3028 3032 3038 3040 3043 3046 3050 3054 3056
3050 3048 3046 3046 3045 3045 3043 3042 3040 3038 3038 3039 3038 3037 3035 3036 3036 3035 3032 3030 3030 3029 3026 3026 3027 3027 3028 3027 3027 3028 3029 3028 3031 3031 3032 3032 3034 3036 3039 3041 3044 3046 3049 3053
3052 3051 3049 3048 3046 3045 3044 3043 3041 3040 3040 3040 3040 3038 3037 3036 3034 3034 3034 3033 3032 3033 3032 3031 3030 3030 3029 3029 3030 3029 3031 3028 3030 3032 3033 3034 3035 3038 3040 3043 3043 3044 3046 3047
3053 3053 3051 3049 3047 3045 3043 3043 3042 3040 3040 3039 3039 3038 3037 3037 3036 3035 3035 3036 3038 3037 3036 3035 3034 3033 3033 3032 3032 3031 3031 3031 3031 3032 3033 3034 3035 3038 3040 3042 3042 3042 3043 3043
3053 3052 3051 3049 3047 3045 3044 3042 3041 3040 3040 3038 3037 3037 3036 3036 3036 3036 3036 3035 3035 3034 3035 3035 3035 3035 3034 3033 3034 3034 3032 3031 3032 3032 3033 3033 3035 3037 3039 3039 3039 3040 3042 3042
3055 3052 3050 3048 3047 3049 3043 3042 3041 3040 3039 3037 3036 3035 3035 3035 3034 3034 3034 3033 3032 3033 3034 3036 3035 3035 3036 3036 3035 3034 3034 3034 3034 3034 3035 3035 3035 3036 3040 3037 3037 3039 3040 3040
3055 3054 3051 3050 3047 3045 3043 3043 3041 3040 3040 3037 3037 3035 3034 3033 3033 3032 3032 3032 3032 3032 3032 3032 3033 3033 3033 3033 3033 3034 3034 3034 3034 3035 3035 3036 3036 3036 3035 3035 3034 3035 3036 3037
3054 3053 3054 3051 3049 3046 3043 3043 3042 3041 3039 3037 3036 3036 3035 3034 3032 3031 3030 3030 3029 3030 3029 3028 3029 3029 3030 3031 3032 3031 3031 3031 3032 3032 3033 3033 3034 3033 3034 3034 3034 3034 3034 3033
3053 3051 3050 3050 3048 3042 3041 3041 3041 3042 3045 3038 3036 3035 3034 3033 3032 3030 3028 3027 3026 3026 3027 3027 3027 3027 3026 3026 3026 3026 3026 3027 3027 3027 3027 3028 3029 3029 3029 3028 3029 3028 3029 3029
3055 3052 3049 3048 3046 3043 3041 3041 3042 3040 3037 3036 3035 3034 3032 3031 3028 3027 3026 3024 3023 3022 3022 3023 3024 3024 3023 3024 3025 3025 3024 3024 3024 3024 3024 3024 3023 3022 3022 3022 3022 3021 3021 3022
3052 3052 3051 3050 3044 3042 3040 3038 3036 3035 3035 3033 3033 3031 3031 3029 3027 3025 3022 3020 3019 3018 3017 3018 3018 3019 3019 3020 3020 3020 3020 3020 3020 3019 3018 3017 3017 3016 3015 3014 3014 3013 3012 3010
3048 3047 3045 3045 3041 3040 3037 3034 3032 3030 3030 3029 3029 3028 3027 3026 3024 3022 3020 3017 3016 3012 3013 3012 3014 3014 3014 3016 3016 3016 3016 3016 3015 3014 3013 3012 3012 3010 3009 3007 3006 3005 3003 3001
3044 3041 3039 3036 3036 3034 3034 3031 3029 3027 3025 3024 3024 3023 3022 3022 3021 3019 3017 3015 3012 3009 3008 3008 3008 3008 3010 3010 3011 3011 3010 3010 3009 3008 3007 3007 3006 3004 3001 3000 2998 2996 2993 2992
3033 3034 3033 3030 3031 3027 3027 3025 3024 3022 3021 3020 3019 3019 3018 3017 3016 3015 3014 3012 3009 3007 3004 3004 3004 3004 3005 3005 3006 3005 3004 3004 3004 3002 3001 2999 2997 2995 2993 2991 2988 2986 2985 2983